Theta_e
351 350 355 355 354 348 355 356 352 350 347 345 344 344 342 341 343 342 340 342 341 340 337 340 336 335 338 339 337 335 334 335 336 336 335 335 337 338 338 338 339 338 338 339 341 337 339 338 337
360 357 358 361 346 353 354 352 355 352 350 347 345 343 341 342 342 342 342 342 339 336 337 335 333 337 338 340 340 336 336 335 334 333 335 335 333 334 335 339 342 337 339 341 337 334 335 337 335
350 361 363 359 348 353 358 355 352 348 347 346 344 344 344 343 342 343 342 340 336 335 333 333 335 339 340 339 338 336 336 335 335 335 337 336 337 336 336 338 340 341 341 342 336 341 337 338 339
346 362 364 348 347 348 351 354 352 351 350 349 347 346 341 341 342 342 341 335 334 332 336 337 339 340 340 339 338 335 337 337 336 338 339 335 336 335 337 338 336 337 339 340 340 338 338 338 338
364 366 353 349 349 346 352 352 352 352 350 347 345 343 343 340 341 339 337 336 331 338 341 340 341 339 339 338 336 334 334 335 337 337 338 336 334 336 334 336 337 339 340 339 334 336 336 333 337
366 363 345 351 353 350 352 351 353 353 351 342 340 345 344 339 338 341 341 340 341 342 341 340 340 339 338 335 334 334 336 337 336 336 338 339 335 334 332 331 336 338 337 340 334 335 332 329 329
365 354 348 348 349 355 353 350 352 351 351 349 348 351 343 339 340 343 344 343 347 344 343 340 341 339 337 334 333 335 336 334 335 335 336 337 338 337 336 332 332 334 340 335 335 334 334 334 331
364 343 348 348 349 351 349 350 341 351 348 350 348 350 344 339 341 345 347 350 350 347 346 342 337 337 333 335 335 335 333 331 331 333 338 337 338 336 337 337 335 333 333 335 335 336 337 336 337
351 343 348 349 352 348 348 350 345 346 351 349 350 349 344 341 347 348 349 349 348 347 349 338 335 332 335 335 333 332 332 331 331 333 335 335 336 340 340 339 339 337 333 336 337 333 333 333 336
344 344 347 348 348 347 345 348 350 351 350 350 350 348 348 343 348 349 349 344 350 348 347 343 331 330 333 334 338 341 331 331 332 335 334 335 341 341 342 338 335 334 334 333 334 336 330 328 330
344 346 346 348 347 346 347 347 350 351 351 350 351 349 346 347 348 348 348 345 346 347 345 343 334 341 339 342 340 343 341 337 337 339 339 339 343 344 344 342 340 337 336 335 332 330 327 326 326
347 346 346 347 348 347 349 348 350 350 350 347 345 347 349 350 350 349 343 343 344 345 345 346 346 344 344 345 344 341 342 344 346 344 344 340 337 342 343 342 342 342 340 340 340 340 336 332 330
344 345 343 343 342 344 345 347 349 351 350 347 348 350 350 350 348 348 345 344 345 343 344 347 346 345 345 345 345 343 343 346 345 345 345 340 343 344 342 344 341 343 342 340 340 339 341 342 341
343 343 345 345 344 345 346 348 350 350 350 350 350 349 349 350 349 349 348 344 348 347 346 345 345 345 346 346 344 344 344 346 346 346 347 345 345 343 343 344 343 343 344 343 342 340 342 342 342
342 341 342 347 346 344 343 348 350 349 349 350 350 350 351 350 350 349 350 347 346 346 347 345 345 346 346 343 343 344 345 346 347 345 346 346 346 345 345 345 345 344 344 344 344 343 342 342 341
344 344 343 345 345 345 343 349 348 349 348 348 349 350 351 351 350 350 349 348 344 343 343 346 347 346 346 345 342 342 346 345 344 344 342 343 344 344 345 344 343 344 343 344 344 343 344 343 342
340 345 346 347 345 346 343 347 346 348 348 348 348 348 347 348 350 348 347 345 342 342 343 345 345 345 346 344 346 340 344 344 343 341 341 343 340 343 343 342 344 345 345 345 345 345 345 345 344
342 346 346 349 344 350 353 353 349 346 348 347 348 348 347 347 348 346 345 343 342 342 342 342 344 346 348 348 345 348 345 345 346 338 343 346 342 340 340 341 341 343 344 346 344 346 346 345 345
339 342 346 345 345 350 349 347 344 347 347 347 347 348 348 347 347 346 345 344 346 344 342 342 345 348 349 347 346 347 347 346 346 344 344 343 343 345 345 345 349 348 350 349 348 347 347 347 346
339 340 344 344 346 348 351 348 339 339 344 348 348 348 348 348 347 348 346 348 348 348 344 346 346 348 349 349 346 348 347 347 348 348 345 347 343 344 345 346 349 348 349 347 346 345 346 347 346
339 342 341 342 343 346 346 347 345 341 341 341 347 348 348 348 348 347 349 349 349 346 348 348 349 349 350 351 351 350 347 344 346 348 343 339 336 340 345 347 347 347 346 345 346 346 345 347 343
332 340 341 343 341 350 345 347 343 341 342 341 344 348 348 348 348 347 348 348 349 342 345 350 349 350 351 352 346 341 343 338 343 339 341 338 339 343 345 346 346 347 347 348 347 346 346 345 343
332 334 340 343 343 337 348 343 343 342 342 349 345 346 347 347 348 348 348 348 348 347 345 350 351 352 351 351 348 344 346 341 345 343 342 340 342 342 345 342 344 345 344 345 344 346 347 346 346
331 332 332 331 332 333 332 339 340 344 343 348 344 346 347 347 348 348 348 348 348 348 347 344 352 343 351 352 350 347 344 346 346 344 344 344 343 343 345 344 347 345 342 342 342 342 342 344 345
326 326 329 333 332 332 333 340 336 340 345 342 340 340 342 347 349 349 348 348 348 348 351 347 346 350 352 351 349 350 345 346 344 342 341 342 346 344 345 346 344 341 336 331 327 325 328 338 340
323 324 327 334 334 332 340 341 341 342 342 342 342 340 342 346 348 349 348 348 348 349 353 350 349 352 353 353 353 346 344 341 341 344 345 345 345 346 345 342 338 330 323 320 319 321 326 331 333
322 325 325 325 325 328 340 341 336 340 341 343 343 341 344 346 347 349 350 349 346 350 352 353 355 357 356 355 349 347 346 344 345 346 346 346 346 345 343 337 326 321 319 319 318 320 324 326 325
322 323 325 320 328 329 329 342 339 342 343 343 341 343 341 345 345 345 349 348 349 351 355 358 358 355 355 353 349 348 345 345 346 345 344 342 342 338 327 321 319 319 319 320 322 324 325 328 328
319 323 321 319 321 323 325 326 334 339 340 341 336 341 344 343 346 347 350 352 354 355 357 357 354 351 350 349 347 346 344 344 342 340 339 336 330 323 319 318 319 319 313 315 321 322 325 326 323
321 321 321 321 322 320 320 322 337 338 339 339 337 338 345 345 349 349 350 350 355 356 356 356 353 351 348 347 345 344 344 341 337 335 330 324 320 318 317 318 315 308 306 314 317 320 323 321 321
Wind_Speed
11 11 6 3 3 4 3 5 10 7 8 9 22 4 6 12 3 2 17 25 23 22 21 19 18 18 17 16 16 16 17 17 16 14 12 11 11 12 12 12 11 11 10 9 9 10 11 10 13
7 10 3 2 5 5 3 4 9 6 9 19 14 7 5 4 8 24 29 20 22 21 19 18 18 16 15 15 14 15 16 15 13 12 11 10 10 11 11 12 11 11 11 11 10 11 11 13 13
6 5 3 2 3 4 5 14 13 10 20 17 9 9 4 4 22 26 26 27 23 21 19 19 18 16 14 13 13 14 14 13 11 11 11 10 11 11 11 11 11 11 10 11 10 12 13 13 13
4 1 4 3 5 4 6 20 22 16 12 9 19 10 10 10 20 27 27 25 22 21 18 17 16 14 13 12 12 13 13 12 10 10 11 10 10 10 10 9 10 11 11 10 10 12 13 11 11
1 1 3 3 3 4 15 21 20 11 8 13 8 7 8 12 25 28 26 23 22 19 16 15 15 14 13 12 11 11 11 10 9 9 9 9 9 9 8 9 9 10 11 11 11 12 14 13 13
4 2 4 5 6 9 18 23 27 20 18 18 17 13 6 22 30 27 24 21 18 16 14 12 13 13 11 10 11 10 10 8 7 7 8 8 8 7 4 4 8 9 10 11 11 13 14 13 13
3 1 4 7 8 18 17 20 16 17 18 10 15 5 15 28 29 26 23 19 15 12 10 12 13 12 11 10 10 10 8 7 6 6 7 7 8 7 4 5 6 8 9 10 11 12 12 12 14
7 3 2 3 6 4 15 7 19 23 5 21 22 6 11 32 26 25 22 17 14 14 10 11 13 13 11 10 9 7 6 5 5 5 6 7 6 2 1 5 7 8 9 10 10 10 9 11 12
6 3 6 4 5 4 12 6 6 9 25 6 8 19 32 29 23 22 21 22 19 16 13 9 13 11 10 10 8 7 5 4 5 5 5 5 3 4 3 6 10 10 9 9 10 9 10 10 12
5 4 4 5 7 6 9 15 17 12 18 13 24 24 30 29 23 21 20 22 26 18 14 11 12 11 11 11 9 7 7 8 7 4 4 4 4 3 3 3 7 8 9 10 10 9 10 11 13
3 6 8 10 14 20 14 6 16 25 8 31 33 33 35 30 25 21 18 20 22 16 15 14 14 13 13 10 8 8 9 9 7 5 5 5 6 4 2 0 2 6 8 8 9 10 12 10 11
9 8 11 8 11 12 9 11 20 19 16 32 32 32 33 31 30 24 21 18 22 23 16 17 17 16 13 11 4 9 8 8 8 6 6 9 7 8 5 6 5 5 7 9 11 15 14 12 13
4 4 9 22 22 20 18 11 8 16 32 27 31 33 34 30 28 25 21 18 16 18 21 22 18 16 11 10 11 9 10 9 9 10 6 10 9 9 9 11 10 9 8 10 9 10 11 13 15
7 21 15 18 13 13 13 16 11 23 33 31 33 30 30 29 28 27 26 27 24 21 25 19 21 20 11 11 11 11 13 9 10 9 9 11 10 14 12 16 13 12 9 10 10 10 11 9 13
1 7 8 9 7 6 7 6 8 26 31 33 31 33 31 28 26 30 26 27 23 24 28 22 20 18 11 9 10 13 13 10 10 9 10 11 13 12 12 15 14 15 14 13 13 12 13 13 13
4 4 4 4 2 8 7 2 12 31 29 27 26 30 33 32 31 29 27 28 28 21 22 24 21 12 9 11 10 16 17 15 11 7 6 6 9 14 15 14 16 18 17 16 15 15 15 16 17
4 2 3 4 5 3 4 6 10 32 30 26 25 25 26 29 33 26 29 30 31 24 23 24 18 13 9 7 3 11 18 15 13 9 7 7 3 6 7 9 10 10 11 12 12 11 13 14 14
5 2 3 4 3 3 3 8 5 19 26 25 27 24 21 25 30 29 29 30 27 24 27 23 19 14 12 9 6 9 14 15 14 10 8 4 4 5 5 5 3 5 8 7 6 6 7 8 9
7 6 5 7 9 6 11 7 6 5 15 20 25 27 26 23 31 29 28 29 22 25 29 25 23 18 17 11 6 8 11 10 8 9 8 4 6 7 8 6 4 6 5 3 3 5 8 7 7
8 2 7 4 12 6 8 11 5 7 9 25 28 29 30 23 31 29 36 31 26 24 30 26 23 21 17 10 5 5 9 8 4 3 4 2 5 7 7 6 7 7 5 2 3 5 9 6 4
6 5 7 9 11 7 11 6 6 6 19 18 11 21 30 30 37 31 36 35 27 19 26 28 26 23 17 16 9 8 6 5 5 6 6 4 3 6 5 5 4 4 5 4 5 5 7 6 4
7 18 9 13 6 7 11 5 7 9 10 9 16 13 19 27 38 37 37 35 35 22 19 27 25 24 22 19 15 22 12 8 9 10 10 3 4 5 4 7 7 5 6 5 6 7 7 8 7
14 4 15 17 18 4 13 2 7 2 5 11 16 20 25 27 42 43 40 36 37 33 9 25 27 23 23 23 17 10 11 13 14 14 13 8 9 8 6 7 11 10 7 8 9 9 10 10 10
12 5 4 4 5 2 6 5 5 6 10 6 10 25 31 25 40 47 37 36 34 31 18 22 32 23 24 20 15 15 8 13 14 12 14 12 14 13 11 11 13 12 13 14 14 14 14 12 10
5 6 3 4 4 6 3 4 8 9 6 13 17 28 35 33 36 41 42 39 37 29 23 19 25 29 24 19 17 18 15 13 14 15 17 14 10 11 12 13 14 14 13 13 13 12 11 10 3
5 8 5 6 4 6 2 5 6 4 8 10 23 28 28 35 32 38 44 39 34 30 25 23 25 25 21 21 21 17 17 15 14 15 14 13 12 11 14 13 13 12 11 10 10 9 8 8 7
11 3 8 7 1 4 2 5 10 3 5 13 16 25 33 36 28 31 37 39 31 30 27 25 23 19 16 19 19 17 17 14 13 13 12 12 11 11 12 13 12 11 10 9 7 6 6 6 5
7 4 1 3 3 3 4 5 5 5 12 9 8 20 23 30 19 30 36 35 33 28 26 23 19 15 16 18 15 14 15 14 14 13 13 12 11 11 10 10 9 7 4 1 1 0 2 2 1
6 4 4 6 5 6 3 6 8 15 18 11 11 23 28 30 27 37 43 35 30 29 26 23 17 11 13 11 11 10 11 12 12 10 9 9 8 8 8 5 2 2 2 2 2 4 5 3 2
6 10 8 6 8 3 6 7 5 20 17 14 17 7 15 37 37 41 45 38 33 31 27 23 17 14 14 15 13 12 12 11 9 7 6 6 6 4 2 1 2 3 4 6 4 5 5 2 2
Wind_Direction
142 166 162 173 65 49 65 99 131 128 164 197 158 148 173 94 98 177 149 155 156 145 140 139 137 135 126 121 117 121 124 126 129 130 134 138 136 134 138 140 137 136 138 138 135 128 129 122 125
109 131 178 267 89 75 351 162 128 156 172 151 160 116 96 72 73 125 142 153 151 145 142 140 140 138 131 124 120 123 125 123 121 121 120 121 129 136 134 135 136 133 127 126 122 123 122 118 124
55 29 295 127 105 140 131 125 118 123 131 148 119 116 57 80 124 136 150 151 154 148 145 142 144 141 135 131 129 126 127 123 121 118 120 119 118 124 127 129 129 129 130 127 128 122 118 122 128
98 129 258 71 79 39 81 138 134 131 120 139 118 78 72 118 144 153 151 150 151 147 148 148 149 150 144 141 140 138 134 128 127 124 127 120 124 121 127 126 132 133 137 132 130 128 128 130 132
275 284 16 52 35 67 103 123 126 114 90 119 133 89 88 137 152 148 147 150 152 149 149 150 146 145 147 145 146 144 135 130 130 133 134 130 126 125 128 133 139 137 135 137 138 134 132 132 133
351 272 52 53 47 125 110 124 109 100 98 105 101 98 89 141 152 147 146 148 147 150 150 158 156 154 154 152 154 152 144 143 140 142 145 141 133 127 122 142 148 148 151 146 145 139 133 134 143
164 274 157 84 83 110 131 140 116 127 123 125 131 83 137 154 154 146 148 152 148 154 165 177 180 166 162 162 161 163 162 160 163 149 151 156 146 126 142 160 179 175 160 158 156 154 148 146 150
195 125 83 60 99 81 157 144 134 133 98 136 129 150 167 156 152 152 152 152 169 172 161 190 192 177 169 164 164 176 185 181 181 177 171 172 166 147 273 229 199 188 182 172 168 165 163 157 157
216 97 86 146 111 146 130 115 148 129 135 139 188 157 158 152 153 159 165 171 185 177 175 183 189 174 166 160 168 184 199 211 207 199 188 181 151 119 2 248 212 193 193 187 182 183 184 180 176
155 116 120 148 147 134 126 139 140 121 137 101 110 134 154 159 166 173 176 175 185 184 176 174 179 183 178 176 183 204 201 204 212 198 178 189 156 130 61 85 172 207 208 207 202 199 198 192 193
245 99 115 149 143 143 146 167 138 132 135 148 147 152 159 167 176 185 190 188 187 188 187 169 169 177 190 201 235 216 198 191 200 187 206 206 211 218 241 209 213 230 226 226 234 227 221 209 213
95 93 118 151 140 144 141 131 146 153 170 158 147 155 165 172 178 190 188 194 195 198 197 190 193 201 206 208 259 250 216 207 208 226 243 235 233 217 235 259 260 255 259 253 264 242 235 231 236
42 79 41 102 104 104 115 91 131 133 152 154 156 162 173 179 186 194 193 183 184 186 197 207 209 212 218 226 256 243 227 234 228 239 265 234 237 233 242 246 258 258 269 269 269 237 232 243 241
187 69 73 73 54 113 115 126 109 143 158 160 165 174 179 187 191 192 200 204 200 195 188 204 206 205 213 236 244 234 240 228 232 252 268 252 243 238 247 242 251 259 277 272 275 259 261 260 254
17 86 77 39 68 48 34 54 118 148 157 167 175 183 189 195 196 198 197 197 198 190 197 191 193 204 223 227 232 229 229 225 236 256 281 262 251 240 252 257 267 269 268 261 260 262 256 259 253
285 44 98 184 118 37 68 152 143 158 159 166 182 194 197 204 203 206 207 194 195 194 194 186 196 213 224 234 254 215 213 226 251 275 290 299 245 242 247 252 254 258 259 270 264 266 270 275 276
22 332 43 57 52 118 87 234 215 170 163 173 189 201 207 208 204 208 203 194 190 202 194 200 207 209 199 196 189 193 212 235 260 256 284 329 271 231 252 264 258 255 257 260 264 263 272 273 280
240 204 160 156 227 116 137 276 280 176 165 181 191 203 219 200 196 190 200 200 203 202 204 206 208 208 202 198 216 201 210 224 245 250 268 266 263 269 279 308 320 261 273 272 269 277 274 282 268
198 188 178 132 207 143 196 191 301 339 198 188 199 202 205 205 187 207 202 201 198 203 207 210 203 209 212 207 217 207 231 230 228 259 269 321 319 285 283 269 277 296 287 315 334 337 318 323 286
217 237 191 287 157 148 179 237 259 266 252 208 196 202 191 184 187 198 196 205 205 210 202 206 209 209 214 218 219 244 231 228 209 227 243 302 333 306 280 258 250 250 263 257 278 289 306 321 315
250 218 167 212 162 210 118 306 292 282 224 242 202 208 202 194 184 192 197 206 203 208 206 205 208 218 214 209 203 206 218 203 240 210 211 181 295 272 264 261 271 262 253 247 258 258 272 285 284
198 226 233 210 164 196 206 225 228 217 243 247 236 194 220 204 197 197 197 202 196 193 194 206 211 215 207 213 231 230 210 230 216 215 210 200 277 247 241 262 257 263 255 264 257 264 277 283 277
252 232 223 207 206 148 204 163 274 182 221 213 201 206 213 211 205 201 199 208 208 207 198 201 204 207 213 223 221 221 219 196 221 205 208 233 253 255 248 264 271 273 267 266 266 272 275 277 279
267 290 28 66 138 50 198 147 259 208 205 167 195 184 193 206 201 204 205 207 209 211 212 203 204 223 212 221 219 217 215 216 215 197 209 233 240 258 239 257 268 273 282 284 283 280 278 279 277
85 62 333 338 354 225 190 115 229 219 198 163 190 188 187 188 189 199 200 198 212 205 201 195 191 193 207 215 212 214 222 201 196 208 218 242 247 235 243 266 274 280 289 292 293 288 276 269 275
266 159 155 202 213 253 135 245 262 259 153 188 222 214 176 174 184 199 200 203 203 190 192 194 192 199 200 205 208 207 207 206 219 220 223 230 243 255 263 275 281 286 290 291 288 282 280 289 287
281 233 188 115 70 80 224 294 309 58 296 254 224 199 173 173 174 197 194 194 194 193 193 197 194 197 207 204 201 209 218 217 209 210 222 228 238 260 276 277 282 293 304 308 291 276 278 290 312
164 208 273 11 169 279 294 293 237 208 238 239 227 234 179 179 195 196 195 197 198 200 192 191 193 195 202 203 212 221 219 208 211 215 220 233 252 265 270 280 294 306 322 309 274 193 152 149 35
323 306 63 122 140 167 193 254 221 200 216 218 220 203 205 195 192 185 181 186 189 185 183 184 188 203 200 200 211 218 204 205 216 212 226 238 251 264 275 293 324 358 42 121 146 129 135 197 300
208 230 190 151 259 227 160 262 223 208 208 194 239 237 209 193 180 179 182 185 183 182 183 191 199 203 198 203 207 207 213 207 212 231 243 263 271 271 288 35 42 74 100 115 108 96 103 75 354